AO-07 1 07530U 74089B 26121.29055546 -.00000034 00000-0 79719-4 0 9996 2 07530 101.9926 134.0449 0012003 219.2541 152.0055 12.53697396354641 UO-11 1 14781U 84021B 26120.89975147 .00001399 00000-0 14838-3 0 9996 2 14781 97.8024 87.0173 0007327 352.8767 7.2346 14.90669151250085 AO-27 1 22825U 93061C 26121.15064104 .00000112 00000-0 59552-4 0 9995 2 22825 98.6900 188.5756 0007466 233.5672 126.4823 14.30929178700270 FO-29 1 24278U 96046B 26121.13969796 .00000010 00000-0 46840-4 0 9997 2 24278 98.5294 336.4418 0349202 218.3995 139.1818 13.53272049466809 GO-32 1 25397U 98043D 26120.93118432 .00000063 00000-0 47373-4 0 9999 2 25397 99.0062 112.5015 0001590 34.8464 325.2818 14.24418906444609 ISS 1 25544U 98067A 26121.23215145 .00007946 00000-0 15194-3 0 9994 2 25544 51.6312 172.5179 0007184 10.5209 349.5928 15.49045666564471 NO-44 1 26931U 01043C 26121.08321288 .00000152 00000-0 87653-4 0 9994 2 26931 67.0526 6.1038 0006441 263.9297 96.1071 14.31937472283705 SO-50 1 27607U 02058C 26120.81611918 .00001284 00000-0 16857-3 0 9998 2 27607 64.5517 275.5370 0075620 271.0859 88.1584 14.82941374257431 CO-55 1 27844U 03031E 26121.25152925 .00000349 00000-0 16994-3 0 9993 2 27844 98.6752 130.3989 0008841 328.4890 31.5759 14.24306199184992 RS-22 1 27939U 03042A 26121.29441400 .00000984 00000-0 16004-3 0 9990 2 27939 98.3463 304.3319 0012431 60.5915 42.6478 14.73382179208641 CO-65 1 32785U 08021C 26121.24133478 .00006814 00000-0 43468-3 0 9997 2 32785 97.8249 101.7081 0008889 177.6359 182.4912 15.09002780978110 CO-66 1 32791U 08021J 26120.97458408 .00021953 00000-0 73123-3 0 9998 2 32791 97.7523 116.6816 0005114 107.3643 252.8157 15.31126835980069 RS-30 1 32953U 08025A 26121.26021963 -.00000012 00000-0 -16080-3 0 9991 2 32953 82.5083 24.6275 0020593 54.7757 305.5247 12.43177536813861 SRMSAT 1 37841U 11058D 26121.30100332 .00000439 00000-0 94558-4 0 9993 2 37841 19.9736 343.2629 0011755 48.5124 107.4822 14.11564780751185 ZACUBE-1 1 39417U 13066B 26121.14295588 .00006103 00000-0 47576-3 0 9996 2 39417 97.8125 83.2265 0043577 50.8788 309.6297 15.00802839673677 Delfi-N3xt 1 39428U 13066N 26121.25337353 .00012622 00000-0 11088-2 0 9998 2 39428 97.8352 41.6267 0075485 4.4684 355.7193 14.94507551667613 GOMX-1 1 39430U 13066Q 26121.26595580 .00001613 00000-0 24932-3 0 9991 2 39430 97.6515 324.6852 0127710 227.8384 131.1920 14.69277917663023 LO-74 1 39440U 13066AA 26121.30072978 .00003434 00000-0 32208-3 0 9996 2 39440 97.8882 70.1042 0057783 181.3629 178.7442 14.93427151669997 AO-73 1 39444U 13066AE 26120.84874317 .00010883 00000-0 68430-3 0 9997 2 39444 97.8252 91.3381 0036981 8.1702 352.0120 15.08838146672528 DTUSAT-2 1 40030U 14033W 26120.93812007 .00009337 00000-0 51207-3 0 9999 2 40030 98.0858 115.6915 0009068 45.9517 314.2458 15.14385083645537 LILACSAT-2 1 40908U 15049K 26121.22863388 .00020453 00000-0 36711-3 0 9997 2 40908 97.4713 156.3258 0008624 72.1826 288.0365 15.49893054588472 Horyu-4 1 41340U 16012D 26121.09148188 .00175964 00000-0 11298-2 0 9998 2 41340 30.9896 58.4346 0006374 284.2293 75.7655 15.74589796563346 Lapan A3 1 41603U 16040E 26121.25758781 .00004232 00000-0 13580-3 0 9991 2 41603 97.1486 118.9584 0010427 173.0969 187.0419 15.32798194547629 CAS-2T 1 41847U 16066G 26121.14068098 .00000666 00000-0 10392-3 0 9997 2 41847 98.3829 197.4079 0340922 272.3250 83.8953 14.44573997498003 TechnoSat 1 42829U 17042E 26121.03729253 .00003779 00000-0 27214-3 0 9997 2 42829 97.4237 280.5139 0016041 252.9249 107.0221 15.04670365479619 AO-91 1 43017U 17073E 26121.16329175 .00012541 00000-0 55126-3 0 9994 2 43017 97.4774 349.3595 0154217 130.5283 230.9499 15.11859548458285 S-Net D 1 43186U 18014G 26121.28203733 .00007088 00000-0 36973-3 0 9990 2 43186 97.5403 26.3740 0008453 168.7498 191.3925 15.16229260451652 S-Net B 1 43187U 18014H 26120.69860621 .00005170 00000-0 27096-3 0 9996 2 43187 97.5407 25.7795 0009142 167.3012 192.8452 15.16189719451568 S-Net A 1 43188U 18014J 26121.21514868 .00007245 00000-0 37776-3 0 9996 2 43188 97.5416 26.4929 0009083 166.1911 193.9572 15.16235492451649 S-Net C 1 43189U 18014K 26121.29619261 .00006855 00000-0 35795-3 0 9993 2 43189 97.5434 26.6408 0010652 160.4157 199.7487 15.16190769450204 Ten-Koh 1 43677U 18084G 26121.11654569 .00002755 00000-0 21103-3 0 9996 2 43677 98.0788 311.5034 0007367 276.9626 83.0760 15.02741949409095 PO-101 1 43678U 18084H 26121.28466251 .00001946 00000-0 16062-3 0 9993 2 43678 98.1068 315.4936 0012804 332.1893 27.8644 15.00215580409187 QO-100 1 43700U 18090A 26120.49191795 .00000147 00000-0 00000-0 0 9990 2 43700 0.0137 266.9736 0001700 165.7205 348.6817 1.00277015 27199 MinXSS-2 1 43758U 18099A 26121.14477059 .00042434 00000-0 93241-3 0 9992 2 43758 97.4561 196.1625 0008644 83.4216 276.8016 15.43858008406863 AO-95 1 43770U 18099N 26121.13293471 .00014197 00000-0 55898-3 0 9990 2 43770 97.4419 181.5825 0010012 146.6944 213.4926 15.25682477406043 SNUSat 2 1 43782U 18099AA 26121.11166535 .00010395 00000-0 46929-3 0 9992 2 43782 97.4100 175.2356 0012065 101.2956 258.9636 15.21104818405878 SnugLite 1 43784U 18099AC 26121.14754891 .00017053 00000-0 66209-3 0 9996 2 43784 97.3910 175.9184 0004559 99.1226 261.0528 15.26145089406144 ITASat 1 1 43786U 18099AE 26121.11067115 .00008202 00000-0 40048-3 0 9990 2 43786 97.4066 173.5740 0013702 151.0903 209.1093 15.18440965405760 EAGLET 1 1 43790U 18099AJ 26121.08860482 .00005249 00000-0 30402-3 0 9990 2 43790 97.4271 172.0077 0012299 142.9328 217.2755 15.12573255405218 ESEO 1 43792U 18099AL 26121.08148626 .00001061 00000-0 80684-4 0 9997 2 43792 97.4009 160.4823 0013382 128.8492 231.3931 15.04096221404720 JO-97 1 43803U 18099AX 26121.16005163 .00024356 00000-0 78467-3 0 9994 2 43803 97.4163 183.8787 0007207 85.1403 275.0662 15.32161111406425 Suomi 100 1 43804U 18099AY 26121.11647559 .00014987 00000-0 56094-3 0 9992 2 43804 97.4223 181.7160 0011697 89.7465 270.5115 15.27336447406233 ISAT 1 43879U 18111D 26121.24817155 .00103378 00000-0 13642-2 0 9998 2 43879 97.5909 53.1491 0008728 105.5258 254.6961 15.57997272403842 UWE-4 1 43880U 18111E 26121.24780919 .00042968 00000-0 96162-3 0 9993 2 43880 97.5866 47.5858 0010346 124.5765 235.6460 15.43293061403532 Sparrow 1 43881U 18111F 26121.30150990 .00142109 00000-0 15026-2 0 9998 2 43881 97.6131 58.1375 0007202 122.7717 237.4236 15.63681746404024 Prox-1 1 44339U 19036A 26121.24659147 .00021086 00000-0 21282-2 0 9996 2 44339 23.9955 67.5247 0006503 207.5455 152.4700 14.89492915366467 Taurus 1 1 44530U 19059C 26121.19863630 .00006192 00000-0 10038-2 0 9990 2 44530 98.6372 283.1410 0009831 101.8514 258.3794 14.71572814351730 TO-108 1 44881U 19093C 26121.26114537 .00000253 00000-0 34717-4 0 9994 2 44881 97.7549 194.6360 0012215 238.9822 121.0195 14.86439789344449 RS-44 1 44909U 19096E 26121.17450964 .00000020 00000-0 41948-4 0 9991 2 44909 82.5257 10.9471 0216406 254.2584 103.4555 12.79747972296339 SALSAT 1 46495U 20068K 26120.97394616 .00009136 00000-0 32572-3 0 9991 2 46495 97.8854 121.1916 0011671 106.1690 254.0834 15.29093123308148 CSS (TIANHE-1) 1 48274U 21035A 26121.27338075 .00037592 00000-0 40209-3 0 9997 2 48274 41.4673 247.5940 0005901 308.9892 51.0422 15.63112988285831 CUTE 1 49263U 21088D 26121.22971377 .00092861 00000-0 61499-3 0 9991 2 49263 97.4200 216.6990 0000968 142.0140 218.1194 15.75254064255126 TeikyoSat 4 1 49396U 21102B 26121.31813176 .00002227 00000-0 14315-3 0 9999 2 49396 97.3705 152.6202 0013766 94.5546 265.7256 15.09337993245652 Z-Sat 1 49399U 21102E 26121.33258375 .00004776 00000-0 23783-3 0 9998 2 49399 97.3365 158.0803 0018193 54.6701 305.6231 15.17902491246336 KOSEN 1 1 49402U 21102H 26121.07549346 .00009118 00000-0 35439-3 0 9991 2 49402 97.3228 164.1606 0014140 21.9192 338.2649 15.26180242246839 HO-113 1 50466U 21131B 26121.26529973 .00000454 00000-0 15404-3 0 9994 2 50466 98.4957 213.9159 0003121 227.2564 132.8363 14.41311207228350 SNUGLITE 2 1 52899U 22065F 26121.29150531 .00001234 00000-0 24325-3 0 9995 2 52899 98.2135 266.2246 0007902 162.1992 197.9489 14.64257883204134 UmKA 1 (RS40S) 1 57172U 23091G 26121.23835869 .00008344 00000-0 38666-3 0 9994 2 57172 97.5086 180.1268 0011234 284.5150 75.4839 15.20287288156877 CubeBel-2 (EU11S) 1 57175U 23091K 26121.24724970 .00018324 00000-0 67062-3 0 9999 2 57175 97.5085 184.0785 0008406 280.6697 79.3596 15.28068285157131 RS-38S 1 57189U 23091Z 26121.28444885 .00022716 00000-0 67945-3 0 9992 2 57189 97.5119 189.8795 0006554 227.2662 132.8030 15.34549336157494 SONATE-2 1 59112U 24043Q 26120.96440321 .00046084 00000-0 67605-3 0 9990 2 59112 97.5482 268.6074 0006486 21.0561 339.0958 15.55378542120541 GRBBeta 1 60237U 24128C 26121.29155936 .00005183 00000-0 35735-3 0 9990 2 60237 61.9921 20.7511 0046548 124.7844 235.7643 15.06258621 99207 Curium One 1 60242U 24128H 26121.21970981 .00011559 00000-0 66911-3 0 9997 2 60242 61.9806 12.0285 0046086 121.3274 239.2345 15.11756172 99358 ROBUSTA-3A 1 60243U 24128J 26121.29112746 .00011439 00000-0 67661-3 0 9993 2 60243 61.9884 13.9914 0047200 118.8052 241.7794 15.10943732 99331 CatSat 1 60246U 24125J 26121.25880772 .00073075 00000-0 11189-2 0 9997 2 60246 97.2133 333.3215 0022920 0.2143 359.9116 15.53804204100096 HYPERVIEW-1G (RS66S) 1 61772U 24199AP 26121.29044524 .00122104 00000-0 11806-2 0 9998 2 61772 97.2971 359.0066 0008962 93.8181 266.4104 15.65995950127315 AO-123 1 61781U 24199AY 26121.23870112 .00010804 00000-0 31936-3 0 9992 2 61781 97.3066 350.3414 0015758 114.7889 245.4995 15.34982071126726 JINJUSat 1B 1 63210U 25052A 26121.14083566 .00023439 00000-0 75857-3 0 9997 2 63210 97.4058 17.8749 0001448 224.1833 135.9293 15.32046903 62893 NUSHSAT 1 1 63211U 25052B 26121.25439912 .00029612 00000-0 89552-3 0 9996 2 63211 97.4039 18.4060 0001101 224.8807 135.2347 15.34163880 62945 TEVEL2-4 1 63213U 25052D 26121.27346158 .00026596 00000-0 83534-3 0 9991 2 63213 97.3959 17.6356 0000290 297.5312 62.5901 15.32981635 62922 TEVEL2-5 1 63214U 25052E 26120.70152576 .00018680 00000-0 59139-3 0 9997 2 63214 97.3959 17.0242 0000402 308.3019 51.8187 15.32799831 62833 TEVEL2-6 1 63215U 25052F 26120.64742009 .00019145 00000-0 60679-3 0 9995 2 63215 97.3962 16.9554 0000497 308.8887 51.2311 15.32759360 62829 TEVEL2-1 1 63217U 25052H 26120.66088834 .00018836 00000-0 60601-3 0 9999 2 63217 97.3936 16.6470 0001054 344.2908 15.8301 15.32282302 62815 TEVEL2-3 1 63218U 25052J 26120.65708406 .00018565 00000-0 59650-3 0 9994 2 63218 97.3940 16.6597 0001080 343.6471 16.4736 15.32327642 62814 TEVEL2-2 1 63219U 25052K 26120.66141397 .00018724 00000-0 60232-3 0 9991 2 63219 97.3937 16.6490 0001079 344.9311 15.1898 15.32287401 62811 TEVEL2-9 1 63237U 25052AD 26121.16801952 .00023407 00000-0 79527-3 0 9998 2 63237 97.3998 16.6267 0004692 325.1315 34.9617 15.30467898 62837 TEVEL2-7 1 63238U 25052AE 26121.13509283 .00023037 00000-0 78908-3 0 9999 2 63238 97.4000 16.5285 0004826 324.9321 35.1602 15.30206811 62827 TEVEL2-8 1 63239U 25052AF 26121.14281452 .00022635 00000-0 77585-3 0 9999 2 63239 97.3997 16.5147 0004795 326.5338 33.5599 15.30188164 62827 HYDRA-W 1 63490U 25052BL 26113.93882235 .05662091 24406-5 29537-2 0 9997 2 63490 97.3690 18.2798 0008685 203.5899 156.4993 16.20186780 62336 HADES-ICM (SO-125) 1 63492U 25052BN 26121.18628197 .00635941 00000-0 30472-2 0 9998 2 63492 97.3818 24.3310 0004908 153.9565 206.1951 15.81085461 63361 SPIRONE 1 66657U 25274H 26121.28741204 .00003353 00000-0 32466-3 0 9998 2 66657 97.7478 51.2597 0012529 162.6541 197.5109 14.93352735 23220 K-HERO 1 66660U 25274L 26120.76939208 .00001907 00000-0 18496-3 0 9997 2 66660 97.7485 50.8751 0014115 169.8119 190.3390 14.93781133 23155 SNUGLITE-III DURI 1 66661U 25274M 26121.29461904 .00002235 00000-0 21545-3 0 9994 2 66661 97.7480 51.4116 0014773 169.5995 190.5534 14.93843439 23231 SilverSat 1 66909U 98067XV 26113.44966717 .07226154 12288-4 11979-2 0 9998 2 66909 51.6027 190.0749 0007952 333.4666 26.5949 16.32457272 22308 SAKHACUBE-CHOLBON 1 67290U 25313AU 26121.16192884 .00015328 00000-0 63383-3 0 9994 2 67290 97.3950 196.8133 0010328 154.6168 205.5578 15.24014729 18810 RS95S (QMR-KWT-2) 1 67291U 25313AV 26121.18742326 .00020234 00000-0 81001-3 0 9998 2 67291 97.3947 196.9296 0010191 153.5443 206.6317 15.25046806 18826 Ten-Koh2 1 68261U 25241B 26120.39561297 .00006717 00000-0 29306-3 0 9994 2 68261 51.6489 187.0004 0005788 350.6255 9.4613 15.23280865 7620 JACK-002 1 68417U 26067B 26121.12947887 .00007898 00000-0 38269-3 0 9998 2 68417 97.4537 80.3343 0004160 87.6654 272.5057 15.18796631 4808 DISCO 2 1 68431U 26067R 26121.13892710 .00011507 00000-0 56259-3 0 9990 2 68431 97.4575 80.3374 0003697 126.5027 233.6548 15.18377000 4809 HADES-SA (SpinnyONE) 1 68446U 26067AG 26121.16355414 .00026761 00000-0 13345-2 0 9990 2 68446 97.4384 80.2319 0005209 223.3384 136.7441 15.17493626 4799 PARUS-6U1 1 68456U 26067AS 26121.16582089 .00008179 00000-0 41680-3 0 9998 2 68456 97.4524 80.2815 0004443 210.3595 149.7382 15.17021757 4808 SAL-E 1 68458U 26067AU 26121.16584270 .00011435 00000-0 58008-3 0 9995 2 68458 97.4451 80.2529 0004369 222.3219 137.7678 15.17084485 4806 FSI-SAT 2 1 68792U 26088A 26115.68414791 .00000849 00000-0 61705-4 0 9995 2 68792 97.4990 266.2992 0012809 287.5176 72.4651 15.06389719 389 OrigamiSat 2 1 68795U 26088D 26113.82356135 .00001590 00000-0 10758-3 0 9994 2 68795 97.5008 264.4888 0014430 266.4157 93.5420 15.07861282 103 ARICA 2 1 68796U 26088E 26113.82352201 .00001593 00000-0 10752-3 0 9992 2 68796 97.4989 264.4863 0014541 264.6248 95.3321 15.07951070 103 WASEDA-SAT-ZERO-II 1 68797U 26088F 26113.82350997 .00001596 00000-0 10767-3 0 9992 2 68797 97.5012 264.4822 0014814 262.4592 97.4954 15.07975758 102 MANGARO-II-Piscus 1 68798U 26088G 26113.82334568 .00001591 00000-0 10611-3 0 9992 2 68798 97.4999 264.4888 0017891 266.9056 93.0125 15.08353756 101 IO-86 1 40931U 25360.30710720 .00000000 00000-0 12800-3 0 00 2 40931 6.0006 332.5373 0012733 338.8432 8.1437 14.79075515 01 LILIUM-4 1 71922C 26067AC 26089.50133053 -.00014632 00000 0 -74472-3 0 04 2 71922 97.4497 49.1617 0004341 5.9603 355.7042 15.16896692 16